sat.trackr.live / text

‹ back to catalog

ONEWEB-0116

NORAD 48046 · 2021-025E

PAYLOAD ACTIVE UNKNOWN

§ Identity

Operator
Country
UK
Launch date
2021-03-25
Launch site
VOSTO
Launch vehicle
Mass (kg)
RCS (m²)

Purposes: comms

External: N2YO · Heavens-Above · Gunter

§ Orbital elements

Epoch: 2026-09-19T19:34:08.382720Z

Period
109.63 min
Inclination
87.8924°
Eccentricity
0.0001998
Mean motion
13.13469106 rev/d
Perigee alt
1,208.3 km
Apogee alt
1,211.3 km
Semi-major
7,587.9 km
B*
-3.1076e-4
RAAN
301.3953°
Arg perigee
91.9308°
Mean anomaly
268.2050°
Rev number
26,607

§ Raw data

ONEWEB-01161 48046U 21025E   26262.81537480 -.00000101  00000+0 -31076-3 0  99992 48046  87.8924 301.3953 0001998  91.9308 268.2050 13.13469106266071

JSON: /api/v1/satellites/48046 · /tle

For live sub-satellite position, see the globe view (requires WebGL).

§ Visibility from observer

Set your observer location to see the next 7 days of passes ≥ 10°. The values pass through the URL so the page stays shareable.

No JS? Fill the form by hand. The geolocation button needs JavaScript.